This is the latest recevied weather packets stored in our database for station/object N9BID. If no packets are shown the sender has not sent any weather packets the latest 10 day(s).
| Time | Temp. | Humidity | Pressure | Rain* | Wind** | Luminosity | Snow |
|---|---|---|---|---|---|---|---|
| 1777655546 | 5.56° C | 60% | 1009.9 hPa | 0 mm | - | 237 W/m² | - |
| 1777655243 | 5.56° C | 56% | 1009.9 hPa | 0 mm | - | 239 W/m² | - |
| 1777654939 | 5.56° C | 57% | 1009.7 hPa | 0 mm | - | 349 W/m² | - |
| 1777654637 | 5.56° C | 56% | 1009.8 hPa | 0 mm | - | 411 W/m² | - |
| 1777654334 | 5° C | 59% | 1009.9 hPa | 0 mm | - | 256 W/m² | - |
| 1777654032 | 5° C | 60% | 1010 hPa | 0 mm | - | 269 W/m² | - |
| 1777653729 | 5° C | 62% | 1009.7 hPa | 0 mm | - | 212 W/m² | - |
| 1777653425 | 5° C | 62% | 1009.8 hPa | 0 mm | - | 161 W/m² | - |
| 1777653122 | 5° C | 60% | 1009.8 hPa | 0 mm | - | 190 W/m² | - |
| 1777652818 | 5.56° C | 60% | 1009.8 hPa | 0 mm | - | 308 W/m² | - |
| 1777652515 | 5° C | 58% | 1009.7 hPa | 0 mm | - | 373 W/m² | - |
| 1777652212 | 5° C | 61% | 1009.8 hPa | 0 mm | - | 300 W/m² | - |
| 1777651909 | 4.44° C | 61% | 1010 hPa | 0 mm | - | 262 W/m² | - |
| 1777651605 | 5° C | 61% | 1010.1 hPa | 0 mm | - | 212 W/m² | - |
| 1777651303 | 5° C | 63% | 1010.1 hPa | 0 mm | - | 263 W/m² | - |
| 1777650999 | 5° C | 59% | 1009.8 hPa | 0 mm | - | 342 W/m² | - |
| 1777650697 | 5.56° C | 58% | 1010 hPa | 0 mm | - | 230 W/m² | - |
| 1777650394 | 5° C | 60% | 1009.9 hPa | 0 mm | - | 532 W/m² | - |
| 1777650091 | 5° C | 61% | 1010 hPa | 0 mm | - | 337 W/m² | - |
| 1777649788 | 4.44° C | 59% | 1010 hPa | 0 mm | - | 317 W/m² | - |
| 1777649485 | 4.44° C | 63% | 1009.9 hPa | 0 mm | - | 353 W/m² | - |
| 1777649182 | 3.89° C | 60% | 1010 hPa | 0 mm | - | 255 W/m² | - |
| 1777648879 | 3.89° C | 61% | 1009.9 hPa | 0 mm | - | 205 W/m² | - |
| 1777648272 | 3.89° C | 63% | 1010 hPa | 0 mm | - | 164 W/m² | - |
| 1777647968 | 3.89° C | 64% | 1009.8 hPa | 0 mm | - | 166 W/m² | - |
* Rain latest hour (hover to see other rain measurements)
** Current wind speed in m/s (hover to see current wind gust speed)